EW8041 Weather Reports


Display with metric or nautical units.
time (UTC)temp
F
wind
direction
speed
MPH
gust
MPH
rain 1hr
in
rain 24hr
in
rain mn
in
humidity
%
barometer
mb
20260509044528 54 0.0 0.0 0.00 0.00 0.00 79 1012.2
20260509043524 54 0.0 0.0 0.00 0.00 0.00 78 1012.2
20260509042519 54 0.0 0.0 0.00 0.00 0.00 78 1012.1
20260509041534 55 0.0 0.0 0.00 0.00 0.00 77 1012.3
20260509040550 55 0.0 0.0 0.00 0.00 0.00 77 1012.3
20260509035526 55 141 0.0 1.0 0.00 0.00 0.00 76 1012.3
20260509034522 55 141 0.0 1.0 0.00 0.00 0.00 76 1012.4
20260509033518 56 0.0 0.0 0.00 0.00 0.00 75 1012.4
20260509032534 56 141 0.0 1.0 0.00 0.00 0.00 75 1012.5
20260509031529 57 141 0.0 1.0 0.00 0.00 0.00 74 1012.8
20260509030525 57 0.0 0.0 0.00 0.00 0.00 73 1012.9
20260509025521 58 141 0.0 1.0 0.00 0.00 0.00 73 1012.7
20260509024516 58 141 0.0 1.0 0.00 0.00 0.00 72 1012.6
20260509023552 59 0.0 0.0 0.00 0.00 0.00 71 1012.7
20260509022528 60 141 0.0 1.0 0.00 0.00 0.00 71 1012.7
20260509021543 60 142 1.0 2.0 0.00 0.00 0.00 70 1012.7
20260509020520 61 174 1.0 1.0 0.00 0.00 0.00 70 1012.8
20260509015535 62 177 0.0 2.0 0.00 0.00 0.00 69 1012.7
20260509014551 62 180 1.0 4.0 0.00 0.00 0.00 69 1012.7
20260509013526 63 166 2.0 6.0 0.00 0.00 0.00 68 1012.5
20260509012522 63 169 2.0 6.0 0.00 0.00 0.00 68 1012.6
20260509011517 64 182 2.0 8.0 0.00 0.00 0.00 67 1012.5
20260509010533 64 169 2.0 7.0 0.00 0.00 0.00 67 1012.5
20260509005528 64 173 3.0 8.0 0.00 0.00 0.00 66 1012.5
20260509004524 65 162 2.0 4.0 0.00 0.00 0.00 66 1012.3
20260509003519 65 184 1.0 4.0 0.00 0.00 0.00 66 1012.3
20260509002515 66 186 3.0 7.0 0.00 0.00 0.00 65 1012.5
20260509001531 66 187 2.0 6.0 0.00 0.00 0.00 64 1012.6
20260509000527 67 178 3.0 7.0 0.00 0.00 0.00 64 1012.6
20260508235523 68 168 3.0 7.0 0.00 0.00 0.00 62 1012.6
20260508234518 68 151 3.0 7.0 0.00 0.00 0.00 61 1012.5
20260508233554 69 167 1.0 4.0 0.00 0.00 0.00 60 1012.6
20260508232530 70 162 2.0 7.0 0.00 0.00 0.00 60 1012.5
20260508231525 70 189 3.0 7.0 0.00 0.00 0.00 59 1012.5
20260508230600 71 148 2.0 6.0 0.00 0.00 0.00 59 1012.5
20260508225536 71 170 2.0 8.0 0.00 0.00 0.00 58 1012.6
20260508224532 71 197 5.0 11.0 0.00 0.00 0.00 58 1012.7
20260508223529 71 261 2.0 4.0 0.00 0.00 0.00 58 1012.7
20260508222524 72 169 3.0 9.0 0.00 0.00 0.00 58 1012.7
20260508221520 72 158 3.0 8.0 0.00 0.00 0.00 57 1012.8
20260508220516 71 143 2.0 6.0 0.00 0.00 0.00 58 1013.0
20260508215532 72 125 2.0 7.0 0.00 0.00 0.00 57 1012.9
20260508214527 72 169 1.0 6.0 0.00 0.00 0.00 56 1012.9
20260508213523 72 196 2.0 7.0 0.00 0.00 0.00 56 1012.9
20260508212519 73 157 2.0 7.0 0.00 0.00 0.00 55 1012.9
20260508211535 73 150 2.0 8.0 0.00 0.00 0.00 56 1012.9
20260508210530 73 179 3.0 7.0 0.00 0.00 0.00 55 1012.9
20260508205546 73 276 1.0 4.0 0.00 0.00 0.00 54 1012.8
20260508204521 74 187 3.0 6.0 0.00 0.00 0.00 54 1012.7
20260508203517 74 169 3.0 9.0 0.00 0.00 0.00 54 1013.0
20260508202533 74 235 2.0 7.0 0.00 0.00 0.00 55 1013.4
20260508201528 74 148 3.0 8.0 0.00 0.00 0.00 55 1013.7
20260508200524 74 94 2.0 6.0 0.00 0.00 0.00 55 1013.5
20260508195520 73 118 2.0 4.0 0.00 0.00 0.00 56 1013.4
20260508194515 73 92 2.0 6.0 0.00 0.00 0.00 55 1013.4
20260508193531 72 101 2.0 4.0 0.00 0.00 0.00 54 1013.5
20260508192528 72 91 2.0 6.0 0.00 0.00 0.00 56 1013.7
20260508191523 72 77 2.0 4.0 0.00 0.00 0.00 55 1014.0
20260508190519 72 144 1.0 4.0 0.00 0.00 0.00 56 1014.2
20260508185535 72 146 1.0 3.0 0.00 0.00 0.00 55 1014.3
20260508184530 72 102 1.0 4.0 0.00 0.00 0.00 55 1014.3
20260508183527 72 71 2.0 4.0 0.00 0.00 0.00 54 1014.4
20260508182522 72 136 1.0 3.0 0.00 0.00 0.00 55 1014.6
20260508181518 72 82 1.0 4.0 0.00 0.00 0.00 54 1014.9
20260508180534 72 81 1.0 3.0 0.00 0.00 0.00 53 1015.0
20260508175529 72 193 1.0 3.0 0.00 0.00 0.00 54 1015.3
20260508174525 73 118 2.0 4.0 0.00 0.00 0.00 55 1015.5
20260508173520 72 184 1.0 4.0 0.00 0.00 0.00 55 1015.8
20260508172516 72 241 2.0 4.0 0.00 0.00 0.00 54 1015.8
20260508171532 71 119 2.0 7.0 0.00 0.00 0.00 57 1016.2
20260508170528 71 100 1.0 4.0 0.00 0.00 0.00 53 1016.5
20260508165523 70 180 2.0 7.0 0.00 0.00 0.00 56 1016.4
20260508164539 70 128 2.0 7.0 0.00 0.00 0.00 58 1016.7
20260508163535 69 266 1.0 3.0 0.00 0.00 0.00 56 1016.4
20260508162531 70 69 2.0 8.0 0.00 0.00 0.00 56 1016.6
20260508161526 70 95 3.0 10.0 0.00 0.00 0.00 57 1016.8
20260508160521 70 104 2.0 7.0 0.00 0.00 0.00 60 1016.9
20260508155537 70 88 2.0 7.0 0.00 0.00 0.00 63 1017.1
20260508154533 69 149 2.0 4.0 0.00 0.00 0.00 63 1017.1
20260508153528 70 208 2.0 6.0 0.00 0.00 0.00 63 1017.2
20260508152524 69 204 2.0 6.0 0.00 0.00 0.00 64 1017.2
20260508151520 69 173 2.0 6.0 0.00 0.00 0.00 67 1017.3
20260508150516 68 144 1.0 6.0 0.00 0.00 0.00 65 1017.4
20260508145532 67 152 1.0 4.0 0.00 0.00 0.00 65 1017.6
20260508144528 67 142 2.0 4.0 0.00 0.00 0.00 69 1017.7
20260508143603 66 197 1.0 3.0 0.00 0.00 0.00 61 1017.8
20260508142519 67 74 1.0 4.0 0.00 0.00 0.00 69 1017.9
20260508141535 65 164 2.0 6.0 0.00 0.00 0.00 74 1017.8
20260508140531 64 59 1.0 3.0 0.00 0.00 0.00 71 1017.9
20260508135526 64 80 2.0 6.0 0.00 0.00 0.00 73 1017.7
20260508134542 63 82 1.0 3.0 0.00 0.00 0.00 73 1017.8
20260508133558 61 71 2.0 7.0 0.00 0.00 0.00 74 1017.9
20260508132534 60 85 3.0 6.0 0.00 0.00 0.00 76 1017.8
20260508131549 59 77 2.0 4.0 0.00 0.00 0.00 82 1017.8
20260508130525 56 79 1.0 7.0 0.00 0.00 0.00 84 1017.7
20260508125520 54 4 1.0 2.0 0.00 0.00 0.00 92 1017.5
20260508124516 51 2 0.0 1.0 0.00 0.00 0.00 91 1017.5
20260508123532 50 5 0.0 1.0 0.00 0.00 0.00 90 1017.6
20260508122528 49 0.0 0.0 0.00 0.00 0.00 90 1017.6
20260508121524 48 0.0 0.0 0.00 0.00 0.00 90 1017.7
20260508120519 47 0.0 0.0 0.00 0.00 0.00 90 1017.5
20260508115535 47 0.0 0.0 0.00 0.00 0.00 89 1017.6
20260508114552 46 0.0 0.0 0.00 0.00 0.00 89 1017.6
20260508113527 46 0.0 0.0 0.00 0.00 0.00 89 1017.3
20260508112523 46 0.0 0.0 0.00 0.00 0.00 88 1017.2
20260508111519 45 0.0 0.0 0.00 0.00 0.00 88 1017.0
20260508110534 45 5 0.0 1.0 0.00 0.00 0.00 88 1016.7
20260508105530 45 0.0 0.0 0.00 0.00 0.00 88 1016.5
20260508104526 45 0.0 0.0 0.00 0.00 0.00 87 1016.5
20260508103521 46 0.0 0.0 0.00 0.00 0.00 87 1016.2
20260508102538 46 0.0 0.0 0.00 0.00 0.00 87 1016.2
20260508101534 46 5 0.0 1.0 0.00 0.00 0.00 87 1016.0
20260508100529 46 5 0.0 1.0 0.00 0.00 0.00 87 1016.1
20260508095545 46 5 0.0 1.0 0.00 0.01 0.00 87 1015.9
20260508094601 46 0.0 0.0 0.00 0.04 0.00 86 1015.7
20260508093517 47 5 0.0 1.0 0.00 0.05 0.00 86 1015.7
20260508092533 47 0.0 0.0 0.00 0.05 0.00 86 1015.6
20260508091529 47 5 0.0 1.0 0.00 0.06 0.00 86 1015.7
20260508090524 48 5 0.0 1.0 0.00 0.07 0.00 86 1015.7
20260508085540 48 5 0.0 1.0 0.00 0.08 0.00 85 1015.5
20260508084516 48 0.0 0.0 0.00 0.09 0.00 85 1015.5
20260508083532 48 5 0.0 1.0 0.00 0.13 0.00 85 1015.4
20260508082528 49 5 0.0 1.0 0.00 0.19 0.00 85 1015.3
20260508081524 49 0.0 0.0 0.00 0.27 0.00 85 1015.4
20260508080519 49 5 0.0 1.0 0.00 0.31 0.00 85 1015.4
20260508075536 49 5 0.0 1.0 0.00 0.31 0.00 85 1015.3
20260508074532 49 5 0.0 1.0 0.00 0.31 0.00 84 1015.4
20260508073547 49 0.0 0.0 0.00 0.31 0.00 84 1015.3
20260508072524 49 0.0 0.0 0.00 0.31 0.00 84 1015.3
20260508071540 49 0.0 0.0 0.00 0.31 0.00 84 1015.4
20260508070535 49 0.0 0.0 0.00 0.31 0.00 84 1015.4
20260508065531 50 5 0.0 1.0 0.00 0.31 0.00 84 1015.6
20260508064527 50 5 0.0 1.0 0.00 0.31 0.00 83 1015.6
20260508063523 50 5 0.0 1.0 0.00 0.31 0.00 83 1015.6
20260508062559 49 5 0.0 1.0 0.00 0.31 0.00 83 1015.9
20260508061535 50 0.0 0.0 0.00 0.31 0.00 82 1015.9
20260508060531 50 5 0.0 1.0 0.00 0.31 0.00 82 1016.1
20260508055527 50 0.0 0.0 0.00 0.31 0.00 81 1016.1
20260508054543 50 0.0 0.0 0.00 0.31 0.00 81 1016.2
20260508053519 50 0.0 0.0 0.00 0.31 0.00 81 1016.2
20260508052535 50 0.0 0.0 0.00 0.31 0.00 81 1016.1
20260508051531 50 0.0 0.0 0.00 0.31 0.00 80 1016.2
20260508050527 51 0.0 0.0 0.00 0.31 0.00 80 1016.2
20260508045523 51 0.0 0.0 0.00 0.31 0.31 79 1016.0